| time (UTC) | temp F | wind direction | speed MPH | gust MPH | rain 1hr in | rain 24hr in | rain mn in | humidity % | barometer mb |
| 20260502205841 | 76 | 150 | 3.0 | 6.0 | 0.00 | 0.00 | 0.01 | 38 | 1020.3 |
| 20260502204819 | 75 | 211 | 0.0 | 2.0 | 0.00 | 0.00 | 0.01 | 41 | 1020.3 |
| 20260502201813 | 75 | 232 | 2.0 | 4.0 | 0.00 | 0.00 | 0.01 | 38 | 1020.6 |
| 20260502194812 | 75 | 90 | 1.0 | 2.0 | 0.00 | 0.00 | 0.01 | 39 | 1020.6 |
| 20260502193837 | 75 | 125 | 1.0 | 3.0 | 0.00 | 0.00 | 0.01 | 39 | 1020.9 |
| 20260502192826 | 74 | 238 | 2.0 | 4.0 | 0.00 | 0.00 | 0.01 | 38 | 1020.9 |
| 20260502191811 | 74 | 211 | 1.0 | 2.0 | 0.00 | 0.00 | 0.01 | 40 | 1020.9 |
| 20260502190823 | 74 | 53 | 2.0 | 4.0 | 0.00 | 0.00 | 0.01 | 39 | 1020.9 |
| 20260502185822 | 74 | 268 | 1.0 | 4.0 | 0.00 | 0.00 | 0.01 | 41 | 1021.3 |
| 20260502184842 | 74 | 152 | 1.0 | 6.0 | 0.00 | 0.00 | 0.01 | 40 | 1021.3 |
| 20260502183809 | 74 | 118 | 1.0 | 3.0 | 0.00 | 0.00 | 0.01 | 39 | 1021.3 |
| 20260502182810 | 73 | 104 | 2.0 | 4.0 | 0.00 | 0.00 | 0.01 | 40 | 1021.6 |
| 20260502181826 | 73 | 148 | 2.0 | 4.0 | 0.00 | 0.00 | 0.01 | 39 | 1022.0 |
| 20260502180813 | 73 | 172 | 1.0 | 3.0 | 0.00 | 0.00 | 0.01 | 41 | 1022.0 |
| 20260502163816 | 71 | 67 | 1.0 | 4.0 | 0.00 | 0.00 | 0.01 | 50 | 1022.6 |
| 20260502162828 | 70 | 96 | 2.0 | 4.0 | 0.00 | 0.00 | 0.01 | 50 | 1022.6 |
| 20260502161816 | 71 | 104 | 1.0 | 2.0 | 0.00 | 0.00 | 0.01 | 50 | 1022.6 |
| 20260502160834 | 70 | 146 | 1.0 | 3.0 | 0.00 | 0.00 | 0.01 | 49 | 1023.0 |
| 20260502151828 | 67 | 145 | 1.0 | 3.0 | 0.00 | 0.00 | 0.01 | 55 | 1022.6 |
| 20260502150838 | 66 | 285 | 2.0 | 4.0 | 0.00 | 0.00 | 0.01 | 58 | 1022.3 |
| 20260502122808 | 54 | 57 | 1.0 | 2.0 | 0.00 | 0.00 | 0.01 | 89 | 1021.6 |
| 20260502121810 | 52 | 74 | 1.0 | 2.0 | 0.00 | 0.00 | 0.01 | 94 | 1021.3 |
| 20260502120829 | 48 | 95 | 1.0 | 2.0 | 0.00 | 0.00 | 0.01 | 95 | 1021.3 |
| 20260502115840 | 48 | 84 | 0.0 | 1.0 | 0.00 | 0.00 | 0.01 | 95 | 1020.9 |
| 20260502114841 | 47 | 78 | 0.0 | 1.0 | 0.00 | 0.00 | 0.01 | 95 | 1020.6 |
| 20260502113846 | 47 | 72 | 1.0 | 2.0 | 0.00 | 0.00 | 0.01 | 95 | 1020.6 |
| 20260502111841 | 47 | 77 | 1.0 | 2.0 | 0.00 | 0.00 | 0.01 | 95 | 1020.3 |
| 20260502110839 | 48 | 87 | 0.0 | 1.0 | 0.00 | 0.00 | 0.01 | 95 | 1019.9 |
| 20260502105814 | 47 | 81 | 1.0 | 2.0 | 0.00 | 0.00 | 0.01 | 95 | 1019.9 |
| 20260502104829 | 48 | 90 | 0.0 | 1.0 | 0.00 | 0.00 | 0.01 | 95 | 1019.6 |
| 20260502103816 | 48 | 81 | 1.0 | 2.0 | 0.00 | 0.00 | 0.01 | 95 | 1019.6 |
| 20260502102815 | 48 | 83 | 0.0 | 1.0 | 0.00 | 0.00 | 0.01 | 95 | 1019.6 |
| 20260502100847 | 48 | 83 | 1.0 | 2.0 | 0.00 | 0.00 | 0.01 | 94 | 1019.6 |
| 20260502090811 | 49 | 51 | 0.0 | 1.0 | 0.00 | 0.00 | 0.01 | 93 | 1019.2 |
| 20260502065845 | 51 | 131 | 0.0 | 1.0 | 0.00 | 0.00 | 0.01 | 93 | 1019.6 |
| 20260502063817 | 52 | 173 | 0.0 | 2.0 | 0.00 | 0.00 | 0.01 | 94 | 1019.6 |
| 20260502062830 | 52 | 175 | 1.0 | 3.0 | 0.00 | 0.00 | 0.01 | 93 | 1019.6 |
| 20260502061823 | 52 | 85 | 0.0 | 3.0 | 0.00 | 0.00 | 0.01 | 93 | 1019.6 |
| 20260502060829 | 53 | 75 | 1.0 | 3.0 | 0.00 | 0.00 | 0.01 | 91 | 1019.6 |
| 20260502055827 | 54 | 64 | 0.0 | 1.0 | 0.00 | 0.00 | 0.01 | 91 | 1019.6 |
| 20260502054838 | 54 | 59 | 0.0 | 1.0 | 0.00 | 0.00 | 0.01 | 90 | 1019.6 |
| 20260502053816 | 54 | 74 | 0.0 | 1.0 | 0.00 | 0.00 | 0.01 | 89 | 1019.6 |
| 20260502052846 | 54 | 88 | 0.0 | 0.0 | 0.00 | 0.00 | 0.01 | 89 | 1019.9 |
| 20260502051807 | 55 | 66 | 0.0 | 1.0 | 0.00 | 0.00 | 0.01 | 88 | 1019.9 |
| 20260502050829 | 55 | 123 | 0.0 | 1.0 | 0.00 | 0.00 | 0.01 | 89 | 1019.9 |
| 20260502045822 | 56 | 58 | 0.0 | 1.0 | 0.00 | 0.00 | 1.13 | 87 | 1019.6 |
| 20260502044818 | 56 | 59 | 0.0 | 1.0 | 0.00 | 0.00 | 1.12 | 86 | 1019.6 |
| 20260502041847 | 57 | 137 | 0.0 | 1.0 | 0.00 | 0.00 | 1.09 | 84 | 1019.6 |
| 20260502040844 | 58 | 61 | 0.0 | 1.0 | 0.00 | 0.00 | 1.08 | 82 | 1019.2 |
| 20260502035813 | 58 | 58 | 0.0 | 2.0 | 0.00 | 0.00 | 1.07 | 82 | 1019.6 |
| 20260502034846 | 58 | 61 | 0.0 | 2.0 | 0.00 | 0.00 | 1.06 | 81 | 1019.6 |
| 20260502033824 | 59 | 51 | 0.0 | 1.0 | 0.00 | 0.00 | 1.05 | 78 | 1019.6 |
| 20260502032843 | 59 | 60 | 0.0 | 1.0 | 0.00 | 0.00 | 1.04 | 73 | 1019.6 |
| 20260502031839 | 59 | 62 | 0.0 | 1.0 | 0.00 | 0.00 | 1.03 | 75 | 1019.2 |
| 20260502030821 | 60 | 76 | 0.0 | 1.0 | 0.00 | 0.00 | 1.02 | 71 | 1019.2 |
| 20260502025818 | 59 | 107 | 1.0 | 3.0 | 0.00 | 0.00 | 1.01 | 71 | 1018.9 |
| 20260502024822 | 60 | 98 | 0.0 | 2.0 | 0.00 | 0.00 | 1.00 | 69 | 1018.9 |
| 20260502022825 | 60 | 120 | 1.0 | 2.0 | 0.00 | 0.00 | 9.86 | 68 | 1018.9 |
| 20260502021827 | 61 | 124 | 1.0 | 2.0 | 0.00 | 0.00 | 9.77 | 68 | 1018.6 |
| 20260502020812 | 61 | 127 | 1.0 | 2.0 | 0.00 | 0.00 | 9.67 | 68 | 1018.6 |
| 20260502015816 | 61 | 127 | 1.0 | 4.0 | 0.00 | 0.00 | 9.57 | 69 | 1018.2 |
| 20260502014808 | 61 | 128 | 1.0 | 2.0 | 0.00 | 0.00 | 9.47 | 69 | 1018.6 |
| 20260502013839 | 61 | 74 | 0.0 | 1.0 | 0.00 | 0.00 | 9.36 | 72 | 1017.9 |
| 20260502012809 | 61 | 70 | 0.0 | 2.0 | 0.00 | 0.00 | 9.27 | 71 | 1017.6 |
| 20260502011815 | 61 | 84 | 0.0 | 1.0 | 0.00 | 0.00 | 9.17 | 70 | 1017.6 |
| 20260502010822 | 61 | 80 | 0.0 | 1.0 | 0.00 | 0.00 | 9.07 | 72 | 1017.6 |
| 20260502005829 | 62 | 66 | 0.0 | 1.0 | 0.00 | 0.00 | 8.97 | 69 | 1017.2 |
| 20260502004805 | 62 | 79 | 0.0 | 1.0 | 0.00 | 0.00 | 8.86 | 68 | 1016.9 |
| 20260502003840 | 62 | 69 | 0.0 | 2.0 | 0.00 | 0.00 | 8.77 | 66 | 1016.9 |
| 20260502002818 | 62 | 67 | 1.0 | 4.0 | 0.00 | 0.00 | 8.67 | 66 | 1016.5 |
| 20260502001836 | 62 | 78 | 1.0 | 2.0 | 0.00 | 0.00 | 8.57 | 65 | 1016.2 |
| 20260501234818 | 63 | 66 | 1.0 | 3.0 | 0.00 | 0.00 | 8.31 | 64 | 1015.9 |
| 20260501233821 | 63 | 74 | 1.0 | 3.0 | 0.00 | 0.00 | 8.21 | 65 | 1016.2 |
| 20260501232826 | 63 | 71 | 1.0 | 2.0 | 0.00 | 0.00 | 8.11 | 64 | 1015.9 |
| 20260501231837 | 64 | 52 | 1.0 | 3.0 | 0.00 | 0.00 | 8.01 | 63 | 1016.2 |
| 20260501230817 | 63 | 54 | 2.0 | 4.0 | 0.00 | 0.00 | 7.91 | 61 | 1015.9 |
| 20260501225805 | 63 | 41 | 2.0 | 4.0 | 0.00 | 0.00 | 7.81 | 62 | 1015.9 |
| 20260501224822 | 63 | 31 | 2.0 | 4.0 | 0.00 | 0.00 | 7.71 | 63 | 1015.5 |
| 20260501223816 | 63 | 52 | 2.0 | 4.0 | 0.00 | 0.00 | 7.61 | 62 | 1015.9 |
| 20260501222809 | 63 | 56 | 2.0 | 4.0 | 0.00 | 0.00 | 7.51 | 63 | 1015.9 |
| 20260501221836 | 64 | 48 | 2.0 | 4.0 | 0.00 | 0.00 | 7.41 | 61 | 1015.9 |
| 20260501220843 | 64 | 39 | 3.0 | 5.0 | 0.00 | 0.00 | 7.31 | 58 | 1015.9 |
| 20260501215806 | 64 | 45 | 2.0 | 4.0 | 0.00 | 0.00 | 7.21 | 57 | 1015.9 |
| 20260501214843 | 64 | 30 | 2.0 | 6.0 | 0.00 | 0.00 | 7.11 | 59 | 1015.9 |
| 20260501213806 | 64 | 36 | 3.0 | 5.0 | 0.00 | 0.00 | 7.01 | 57 | 1015.5 |
| 20260501212833 | 64 | 40 | 2.0 | 4.0 | 0.00 | 0.00 | 6.91 | 57 | 1015.9 |
| 20260501211834 | 64 | 72 | 3.0 | 6.0 | 0.00 | 0.00 | 6.81 | 58 | 1015.9 |
| 20260501210825 | 64 | 37 | 3.0 | 6.0 | 0.00 | 0.00 | 6.71 | 57 | 1015.9 |